User: anonymous   Login
Location: El Bakhil
(32.7726°N, 5.5387°W)
Time: 06:03:22
(UTC+00:00)
Language:

SPROUT - Orbit

View from above orbital plane
View from above orbital plane
View from above satellite
View from above satellite

Ground track
Ground track

The orbit data is extracted from the following two-line orbital elements,

1 39770U 14029E   21209.88645419  .00001530  00000-0  17045-3 0  9990
2 39770  97.9213 321.1349 0010143  74.4161 285.8177 14.88533343389509
Epoch (UTC): 28 July 2021 21:16:29
Eccentricity: 0.0010143
inclination: 97.9213°
perigee height: 595 km
apogee height: 609 km
right ascension of ascending node: 321.1349°
argument of perigee: 74.4161°
revolutions per day: 14.88533343
mean anomaly at epoch: 285.8177°
orbit number at epoch: 38950

The dashed part of the orbit path shows where the satellite is in the earth's shadow,  

DLR